{"data":{"norad_id":59202,"epoch":"2026-09-20T11:04:15.833568Z","epoch_age_seconds":162151,"freshness":"FRESH","line1":"1 59202U 24046B   26263.46129437  .00006805  00000+0  21224-3 0  9991","line2":"2 59202  53.1584 326.1277 0000858  99.8212 260.2888 15.34415469142931","mean_motion":15.34415469,"eccentricity":8.58e-5,"inclination_deg":53.1584,"raan_deg":326.1277,"arg_perigee_deg":99.8212,"mean_anomaly_deg":260.2888,"bstar":0.00021224,"rev_number":14293,"period_min":93.846811967978,"perigee_km":462.07032331762,"apogee_km":463.24420361323,"semimajor_km":6840.7942634654,"source":"CELESTRAK","updated_at":"2026-09-21T09:00:34.067633Z"}}